EDT,Max TemperatureF,Mean TemperatureF,Min TemperatureF,Max Dew PointF,MeanDew PointF,Min DewpointF,Max Humidity, Mean Humidity, Min Humidity, Max Sea Level PressureIn, Mean Sea Level PressureIn, Min Sea Level PressureIn, Max VisibilityMiles, Mean VisibilityMiles, Min VisibilityMiles, Max Wind SpeedMPH, Mean Wind SpeedMPH, Max Gust SpeedMPH,PrecipitationIn, CloudCover, Events, WindDirDegrees
2013-5-1,81,63,44,49,45,41,93,61,28,30.40,30.35,30.28,10,9,2,14,3,17,0.00,0,,356
2013-5-2,82,64,46,48,43,36,86,56,25,30.43,30.36,30.31,10,10,10,20,6,23,0.00,1,,26
2013-5-3,74,62,49,48,40,33,77,51,25,30.41,30.34,30.28,10,10,10,21,10,25,0.00,2,,49
2013-5-4,77,59,40,47,39,35,92,59,25,30.34,30.26,30.18,10,10,10,10,2,16,0.00,0,,3
2013-5-5,80,61,41,45,41,35,89,55,21,30.22,30.15,30.09,10,10,10,10,3,14,0.00,0,,302
2013-5-6,79,61,43,45,39,33,92,57,21,30.18,30.11,30.02,10,10,10,15,5,18,0.00,0,,256
2013-5-7,81,61,40,51,41,31,89,53,17,30.12,30.07,30.02,10,10,10,17,4,21,0.00,0,,266
2013-5-8,82,63,43,61,53,42,100,64,28,30.11,30.03,29.97,10,7,1,16,2,22,0.54,5,Rain,198
2013-5-9,75,63,50,59,56,50,100,73,46,29.96,29.91,29.84,10,6,0,21,4,30,0.19,4,Fog-Rain-Thunderstorm,262
2013-5-10,68,60,51,58,53,49,100,79,58,30.00,29.92,29.75,10,7,0,17,6,26,0.07,5,Fog-Rain,30
2013-5-11,62,55,47,59,53,44,100,89,77,29.73,29.66,29.60,10,6,2,25,10,33,0.51,8,Rain,214
2013-5-12,53,45,37,45,37,28,86,64,41,29.74,29.68,29.62,10,10,5,35,17,49,0.05,7,Rain,221
2013-5-13,51,44,37,35,31,28,76,61,46,30.05,29.89,29.74,10,10,10,23,12,32,0.01,7,Rain,235
2013-5-14,58,43,28,34,30,27,100,65,30,30.14,30.08,30.02,10,9,1,14,4,20,0.00,1,,233
2013-5-15,65,47,28,50,39,27,100,66,32,30.03,29.74,29.49,10,9,1,22,5,31,0.02,3,Rain,162
2013-5-16,69,56,42,47,41,37,83,59,34,29.98,29.72,29.60,10,10,2,25,11,33,0.00,3,,270
2013-5-17,69,54,38,44,39,32,100,63,26,30.23,30.12,29.99,10,10,10,15,5,20,0.00,2,,267
2013-5-18,72,54,35,44,38,33,100,63,25,30.31,30.25,30.20,10,9,1,12,2,17,0.00,0,,329
2013-5-19,64,53,41,57,49,39,93,77,60,30.24,30.15,30.01,10,9,1,9,3,12,0.06,3,Rain,77
2013-5-20,74,64,53,60,56,52,93,75,57,30.04,30.00,29.95,10,8,0,9,4,,T,6,Fog-Rain,252
2013-5-21,65,61,56,59,56,53,100,84,67,29.99,29.89,29.78,10,7,1,25,10,32,0.50,7,Rain-Thunderstorm,42
2013-5-22,78,67,55,67,60,54,100,87,74,29.84,29.77,29.60,10,6,1,30,4,38,0.40,6,Rain-Thunderstorm,78
2013-5-23,76,62,48,66,61,45,93,79,64,29.83,29.71,29.66,10,8,1,21,11,29,0.42,6,Rain-Thunderstorm,230
2013-5-24,52,48,43,45,41,35,93,74,54,30.12,29.99,29.83,10,7,2,17,9,25,0.37,8,Rain,337
2013-5-25,55,50,45,43,36,32,86,66,45,30.14,30.11,30.08,10,10,5,24,10,31,0.05,7,Rain,353
2013-5-26,63,54,44,42,38,29,83,55,27,30.09,30.06,30.01,10,10,8,20,8,28,0.16,5,Rain,322
2013-5-27,67,55,43,39,36,33,76,53,29,30.22,30.16,30.10,10,10,10,16,6,22,0.00,0,,277
2013-5-28,72,55,38,50,43,36,92,62,31,30.20,30.13,30.01,10,10,10,14,3,17,0.00,1,,71
2013-5-29,78,67,55,65,59,44,93,73,52,30.01,29.93,29.85,10,8,1,28,9,35,0.28,6,Rain,184
2013-5-30,83,71,59,66,63,58,93,74,55,30.07,30.03,29.97,10,9,4,17,9,24,0.00,2,,231
2013-5-31,89,78,67,70,63,61,81,61,41,30.04,29.97,29.88,10,9,2,23,10,31,0.17,2,Rain-Thunderstorm,220